Temperature
10 9 9 9 9 9 9 9 9 9 10 10 10 10 10 10 10 10 10 10 11 11 11 12 12 13 14 14 14 15 15 15 16 17 15 14 14 14 14 14 15 15 16
9 8 8 8 8 8 9 9 8 8 9 9 10 10 10 10 10 10 10 10 10 10 10 11 12 12 13 13 14 14 14 15 15 16 15 14 14 14 14 14 14 14 15
8 8 8 7 7 7 7 8 8 8 8 8 9 9 10 10 10 10 10 10 10 10 10 10 10 11 12 12 13 13 14 14 14 15 15 14 13 13 13 13 13 13 14
8 7 7 7 7 7 7 7 7 7 7 7 8 9 9 9 10 10 10 9 9 9 9 9 10 10 11 11 12 12 13 13 13 14 14 14 13 13 13 13 12 12 12
7 7 7 7 6 6 6 6 6 6 7 7 7 8 9 9 9 10 9 9 9 9 9 9 9 10 10 10 11 11 12 12 13 13 14 14 13 13 12 12 12 12 12
7 7 6 6 6 6 6 6 6 6 6 6 7 7 8 9 9 9 9 9 9 9 9 9 9 9 10 10 10 10 11 11 12 13 13 13 13 13 12 12 12 11 11
6 6 6 6 6 6 6 5 5 5 5 6 6 6 7 8 8 9 9 9 9 9 9 9 9 10 9 9 10 10 10 11 11 12 13 13 13 13 13 12 12 11 11
6 6 6 6 5 5 5 5 5 5 5 5 5 6 6 7 7 8 8 8 8 9 9 9 9 9 9 9 9 9 10 10 11 11 12 12 12 13 13 12 12 11 11
6 6 6 5 5 5 5 5 5 5 5 5 5 5 5 6 7 7 8 8 8 8 8 9 9 9 9 9 9 9 9 10 10 11 11 12 12 12 12 12 11 11 10
6 6 6 5 5 5 5 5 5 5 5 5 5 5 5 6 6 7 7 7 8 8 8 8 8 9 9 9 9 9 9 9 10 10 11 11 11 11 12 12 12 11 11
6 6 5 5 5 5 5 5 5 5 5 5 5 5 5 5 6 6 7 7 8 8 9 9 9 9 9 9 9 9 9 9 10 10 11 11 11 11 11 11 11 12 12
6 6 6 6 6 5 5 5 5 5 5 5 5 5 5 5 6 6 6 7 7 7 8 9 9 9 9 9 9 9 9 9 9 10 10 11 11 11 11 11 11 11 11
6 6 6 6 6 5 5 5 5 5 5 5 5 5 5 5 6 6 6 6 7 7 7 8 8 8 8 8 9 9 9 9 9 10 10 10 11 11 11 11 11 10 11
6 6 6 6 6 6 6 5 5 5 5 5 5 5 5 5 5 6 6 6 7 7 7 7 7 8 8 8 8 8 9 9 9 10 10 10 11 11 11 10 10 10 10
6 6 6 6 6 6 6 6 5 5 5 5 5 5 5 5 5 6 6 6 7 7 7 7 7 8 8 8 8 9 9 9 9 9 10 10 10 10 10 10 10 10 10
6 6 7 7 6 6 6 6 6 5 5 5 5 5 5 5 5 5 6 6 6 7 7 7 8 8 8 9 9 9 9 9 9 9 10 10 10 10 10 10 10 9 9
6 6 7 7 7 7 7 6 6 6 5 5 5 5 5 5 5 5 6 6 6 7 7 7 8 8 9 9 9 9 9 9 9 9 9 10 10 10 10 9 9 9 9
7 7 7 7 7 7 7 7 6 6 6 5 5 5 5 5 5 6 6 6 6 7 7 7 8 8 8 9 9 9 9 9 9 9 9 9 9 10 9 9 9 9 9
7 7 7 7 7 7 7 7 7 6 6 6 5 5 5 6 6 6 6 6 7 7 7 7 8 8 8 8 8 8 8 8 8 9 9 9 9 9 9 9 9 9 9
7 7 7 7 8 8 8 7 7 6 6 6 6 6 6 6 6 6 6 6 7 7 7 8 8 8 8 8 8 8 8 8 8 8 8 9 9 9 9 9 9 9 9
7 7 7 8 8 8 8 7 7 7 6 6 6 6 6 6 6 6 6 7 7 7 7 7 7 7 7 7 7 7 7 8 8 8 8 9 9 9 9 9 9 9 9
7 7 7 8 8 8 8 7 7 7 7 6 6 6 6 6 7 7 7 7 7 7 7 7 7 7 7 7 7 7 7 7 8 8 8 8 8 9 9 9 9 9 10
7 7 7 7 8 8 8 8 8 7 7 7 7 7 6 6 6 7 7 7 7 7 7 7 7 7 7 7 7 7 7 7 8 8 8 8 8 9 9 9 9 10 10
7 7 7 7 7 8 8 8 8 8 7 7 7 7 7 6 7 7 7 7 7 7 7 7 7 7 7 7 7 7 7 7 7 8 8 8 9 9 9 9 10 10 10
7 7 7 7 7 8 8 8 8 8 8 7 7 7 7 7 7 7 7 7 7 7 7 7 7 7 7 7 7 7 7 7 8 8 8 9 9 9 10 10 10 10 10
7 7 7 7 7 7 8 8 8 8 8 8 8 8 8 8 8 8 7 7 7 7 7 7 7 7 7 7 7 7 8 8 8 9 9 9 10 10 10 10 11 11 10
Wind_Speed
18 17 17 17 17 17 16 17 16 16 16 16 16 16 16 15 13 12 12 10 10 9 9 11 13 13 10 11 11 11 11 10 8 6 6 7 6 5 6 6 6 7 10
18 18 18 18 18 18 18 17 17 16 17 18 17 17 18 17 16 15 14 13 12 11 10 9 11 10 12 11 11 13 11 10 10 9 7 7 7 7 7 7 6 8 10
18 18 18 18 18 18 18 18 17 17 17 18 18 18 18 18 18 17 16 14 13 13 12 11 10 10 11 10 11 11 11 11 10 9 8 7 7 8 9 8 8 8 9
18 18 18 18 18 18 18 18 18 17 17 18 18 19 19 19 19 18 17 16 15 14 13 12 11 9 9 10 10 9 9 10 11 10 8 9 8 9 9 8 7 6 7
18 19 19 19 18 18 19 18 18 18 18 18 18 18 18 18 18 18 17 17 16 15 14 13 13 12 11 8 7 7 7 7 9 10 9 8 9 10 9 7 8 8 6
18 19 19 19 19 19 19 18 18 18 18 18 18 18 18 17 16 15 16 17 15 15 14 13 12 13 14 14 12 10 9 8 8 9 9 10 11 12 11 11 10 9 5
18 19 19 19 19 19 19 19 19 18 18 17 17 17 18 18 13 13 15 17 16 15 14 13 12 12 14 13 14 13 12 11 10 7 8 9 11 12 13 15 13 12 7
18 18 18 18 19 19 19 19 19 17 16 15 16 16 16 16 14 14 14 17 17 16 15 14 13 11 12 12 12 12 12 13 12 11 10 9 8 10 14 14 13 10 10
18 18 18 18 19 19 19 19 17 16 15 15 14 14 15 14 13 14 14 14 15 16 16 15 14 13 10 10 11 12 12 12 13 13 10 7 6 7 11 12 13 13 9
18 18 18 18 19 19 18 18 16 15 14 13 12 12 13 13 12 14 15 13 13 13 13 13 12 11 11 13 12 11 12 11 11 12 11 9 9 10 14 16 16 15 12
18 18 18 18 18 17 16 15 15 13 12 11 11 11 11 11 11 14 15 12 12 12 11 11 11 14 12 12 12 11 9 8 10 11 11 11 11 11 14 14 13 15 14
18 18 18 18 16 15 15 14 13 11 11 10 9 9 8 9 10 12 15 14 10 10 10 9 8 15 14 12 11 8 6 7 8 9 10 11 12 12 12 12 11 9 7
17 17 17 16 15 14 13 13 11 9 7 7 6 6 6 6 7 11 14 14 12 10 8 3 6 13 13 11 11 9 9 9 9 10 11 11 11 12 12 10 9 8 9
17 16 15 14 13 13 11 10 9 8 7 6 5 5 4 5 7 9 11 12 13 12 11 7 10 10 9 7 9 10 10 10 10 10 10 9 10 11 12 12 12 12 11
16 14 14 12 12 11 10 8 8 7 6 6 5 5 4 4 2 1 5 8 9 10 10 10 11 11 11 11 11 10 10 10 10 10 9 9 10 11 12 13 13 12 10
14 13 11 11 10 10 9 7 1 3 4 4 4 5 3 2 2 1 1 1 1 5 8 10 11 11 11 11 10 10 10 10 9 10 10 10 12 13 13 13 14 14 14
14 13 11 10 10 9 9 8 7 1 3 4 4 3 3 3 1 2 4 4 5 7 9 10 9 10 10 9 9 9 9 9 8 9 9 10 12 13 15 15 15 14 14
14 12 11 10 9 9 8 7 6 6 4 3 5 6 3 1 2 4 7 8 6 8 9 9 8 8 8 8 8 8 7 7 8 8 9 11 12 13 15 16 15 16 15
13 10 10 10 9 8 8 7 6 6 5 4 3 4 3 4 5 5 7 6 7 8 8 8 7 7 7 7 7 7 7 7 8 8 8 11 13 14 15 16 16 18 16
11 10 10 10 9 8 7 7 6 5 5 4 3 2 2 3 3 4 5 5 5 6 6 7 6 6 6 6 6 6 7 7 8 8 9 10 12 13 16 17 17 17 15
11 10 10 9 7 7 7 7 6 5 4 4 3 4 5 2 1 2 3 3 4 4 4 4 5 5 5 5 5 6 7 7 8 9 10 10 12 13 14 15 16 15 14
10 9 8 8 7 7 7 5 5 5 4 4 2 2 2 4 2 1 1 1 2 2 2 2 3 3 3 4 4 5 7 8 9 10 10 11 12 14 15 14 14 14 13
10 10 9 7 6 5 5 4 4 4 5 4 3 3 2 2 2 3 2 1 0 1 1 1 1 2 2 3 4 5 7 8 9 11 11 12 12 13 14 14 15 15 15
10 10 9 8 7 6 5 4 4 4 5 5 4 3 3 3 3 3 2 1 1 1 1 1 2 4 6 5 5 5 6 7 9 11 13 13 13 13 13 14 15 16 15
9 9 8 8 7 6 5 4 3 3 4 4 4 4 4 3 3 3 2 2 2 3 4 4 4 5 8 8 8 7 7 6 5 10 11 12 14 15 15 16 14 15 15
9 9 8 7 7 7 5 4 3 3 3 3 4 4 4 4 4 4 4 3 4 4 5 5 7 8 9 8 11 11 8 7 6 6 10 13 14 14 15 14 16 15 16
Wind_Direction
312 311 308 304 302 298 293 288 283 279 277 271 264 260 255 250 245 240 244 245 247 254 257 259 253 249 242 230 222 219 218 220 223 196 172 152 156 152 130 115 107 101 90
311 309 306 304 301 299 296 294 290 283 276 270 264 258 254 251 247 242 242 242 241 243 245 251 256 248 244 242 229 220 215 213 217 208 182 171 166 154 135 122 110 96 94
310 308 306 304 303 301 299 297 292 286 279 272 265 258 252 250 248 243 242 242 240 240 238 238 245 251 241 237 240 230 218 210 215 212 196 171 160 150 137 122 110 106 100
310 308 306 305 304 301 298 296 292 287 281 272 265 259 253 248 244 241 238 237 238 238 236 233 229 230 243 237 236 240 230 215 208 213 198 177 165 160 154 144 129 118 109
309 307 306 305 304 301 298 295 292 288 282 275 266 258 252 247 241 235 234 235 233 235 234 230 226 218 220 235 239 234 236 226 212 209 202 185 174 171 170 160 142 123 102
308 306 306 305 304 303 301 298 294 290 285 279 270 260 251 246 237 224 228 236 234 232 233 231 226 211 212 215 229 233 233 232 227 216 208 198 188 183 172 160 151 147 137
305 304 305 305 304 303 301 298 294 291 287 279 272 263 254 248 237 213 215 233 235 233 231 229 230 214 198 207 210 217 225 232 244 242 237 220 197 187 175 170 171 169 149
305 305 306 306 305 302 300 298 295 293 288 282 273 266 258 246 223 207 206 227 235 233 230 227 227 224 208 207 206 210 218 216 219 228 240 245 228 195 184 177 161 131 119
307 308 309 307 304 302 300 298 297 293 288 281 271 265 257 246 219 201 202 225 229 232 229 225 222 222 192 191 213 214 216 215 209 213 228 255 265 202 175 159 150 145 141
310 311 308 304 302 302 301 300 298 293 286 280 269 262 254 243 216 196 203 223 226 227 223 223 219 224 182 184 216 220 220 216 204 201 210 223 219 188 173 174 168 163 152
311 309 306 304 304 303 303 301 299 296 290 282 270 260 251 239 211 194 202 222 227 228 222 214 210 185 186 191 219 227 223 224 210 203 202 205 202 192 185 184 181 174 167
311 309 307 307 308 308 307 306 305 301 295 289 273 260 248 230 212 195 198 218 242 239 235 225 196 169 181 192 212 225 215 220 223 209 204 200 195 189 185 182 177 176 168
312 311 310 310 312 312 312 312 311 305 296 293 280 262 244 222 198 188 196 208 222 236 239 230 147 161 175 197 215 213 213 221 222 216 210 203 193 181 169 159 141 124 117
314 313 313 314 316 318 317 317 318 317 310 300 289 269 242 215 205 197 199 202 206 220 228 193 163 172 210 228 198 204 220 224 222 221 211 196 179 169 164 156 147 139 133
316 315 316 318 319 317 320 326 328 335 338 317 310 297 268 235 200 182 221 212 209 207 205 206 207 202 207 214 216 215 216 216 218 221 208 188 177 168 162 155 152 150 149
317 318 319 319 320 322 328 333 7 327 356 342 321 317 306 354 32 145 221 288 142 175 206 211 211 211 211 214 216 215 215 216 217 213 200 187 177 167 160 157 158 160 158
317 318 317 319 323 328 334 338 345 39 120 71 37 4 325 337 305 186 178 172 172 183 215 222 216 214 217 220 219 219 217 211 208 206 192 182 172 164 159 159 160 162 161
318 316 315 318 324 332 337 341 348 359 25 61 74 60 52 65 158 167 165 170 180 206 224 225 221 219 220 224 223 221 216 206 200 198 191 178 168 162 160 160 162 163 162
319 323 324 320 324 335 343 348 355 9 27 42 76 90 90 119 139 161 188 217 205 204 215 223 224 223 225 225 224 220 215 204 194 188 187 175 166 162 161 161 160 161 161
319 315 313 317 326 341 349 355 6 15 27 35 42 60 129 185 164 171 206 228 230 223 222 223 225 228 229 225 217 211 204 194 185 183 176 169 162 160 159 158 158 161 164
320 321 312 312 333 346 352 358 7 16 22 29 33 37 348 309 223 190 207 223 238 239 236 234 223 222 223 214 206 198 187 178 175 168 160 158 156 155 155 155 157 160 163
320 324 326 327 334 344 347 358 8 14 24 26 35 89 282 294 316 298 263 237 236 244 250 250 235 225 213 202 190 176 166 159 154 149 149 149 148 149 150 152 157 162 167
325 328 328 327 328 326 324 4 17 14 24 27 25 25 29 3 356 357 6 21 1 260 266 227 189 161 150 150 147 150 146 144 146 146 145 143 143 144 147 153 160 163 167
328 332 334 334 333 336 350 4 16 17 20 28 29 31 35 25 18 23 30 40 50 74 91 102 125 130 132 127 120 126 131 137 146 147 145 144 145 146 148 154 161 164 166
333 338 339 338 336 338 346 358 16 22 24 26 34 37 41 42 34 39 50 67 93 109 113 121 129 135 141 139 134 130 122 129 148 146 150 148 147 149 152 157 159 161 162
339 341 342 342 341 339 341 347 5 21 31 35 34 35 39 38 44 55 68 75 85 95 110 124 131 139 148 142 131 130 132 137 147 159 154 148 148 149 152 154 155 158 159
Height
1481 1477 1473 1470 1467 1464 1462 1460 1458 1456 1455 1454 1454 1453 1452 1452 1452 1451 1451 1451 1450 1450 1451 1452 1454 1458 1461 1464 1467 1470 1472 1474 1476 1478 1479 1479 1480 1482 1483 1484 1486 1487 1489
1474 1470 1466 1462 1459 1456 1454 1451 1449 1447 1446 1446 1445 1445 1445 1445 1445 1445 1445 1445 1445 1445 1445 1446 1447 1449 1452 1457 1460 1463 1466 1468 1471 1473 1475 1476 1477 1479 1480 1481 1483 1485 1486
1468 1464 1459 1456 1452 1448 1445 1443 1440 1438 1436 1436 1436 1435 1436 1436 1437 1438 1438 1439 1439 1439 1439 1440 1440 1441 1444 1448 1452 1456 1459 1462 1465 1468 1470 1472 1473 1475 1477 1479 1481 1483 1485
1462 1457 1453 1449 1445 1441 1438 1435 1432 1429 1427 1426 1425 1425 1426 1427 1428 1429 1431 1432 1433 1433 1434 1434 1435 1436 1436 1440 1444 1448 1452 1456 1459 1463 1465 1467 1469 1472 1474 1476 1479 1481 1484
1456 1451 1447 1443 1439 1434 1431 1427 1424 1421 1418 1416 1415 1415 1416 1417 1419 1421 1423 1424 1426 1427 1427 1428 1429 1430 1431 1433 1436 1440 1445 1448 1453 1456 1460 1463 1465 1468 1471 1473 1476 1479 1482
1451 1446 1441 1436 1432 1428 1423 1419 1416 1412 1409 1407 1405 1405 1406 1407 1409 1412 1415 1417 1418 1420 1421 1422 1423 1424 1425 1427 1429 1433 1437 1441 1446 1450 1454 1458 1460 1463 1467 1469 1472 1476 1480
1445 1440 1435 1430 1426 1421 1416 1412 1407 1404 1401 1398 1396 1395 1395 1397 1400 1403 1406 1409 1411 1412 1414 1416 1418 1419 1420 1422 1424 1426 1430 1434 1439 1444 1448 1453 1456 1459 1462 1465 1469 1474 1476
1440 1435 1430 1425 1419 1414 1409 1404 1399 1395 1392 1389 1387 1386 1386 1387 1390 1394 1397 1400 1403 1406 1408 1410 1412 1414 1416 1418 1420 1422 1424 1428 1433 1437 1442 1447 1452 1455 1458 1462 1466 1470 1475
1435 1430 1424 1418 1412 1407 1401 1396 1391 1387 1383 1380 1379 1378 1377 1379 1382 1386 1389 1393 1396 1399 1401 1404 1406 1409 1411 1413 1415 1418 1420 1423 1426 1431 1436 1441 1445 1450 1454 1459 1462 1466 1471
1430 1424 1418 1412 1406 1400 1395 1389 1384 1380 1376 1373 1371 1370 1370 1372 1375 1378 1382 1386 1390 1393 1395 1398 1401 1404 1407 1409 1411 1414 1416 1418 1421 1425 1429 1434 1440 1444 1449 1454 1457 1462 1466
1424 1418 1412 1406 1400 1395 1389 1383 1378 1374 1370 1367 1365 1364 1364 1366 1369 1372 1376 1380 1384 1387 1390 1392 1395 1398 1401 1404 1407 1409 1411 1414 1416 1419 1424 1429 1434 1439 1444 1449 1454 1458 1462
1419 1413 1406 1401 1395 1390 1384 1378 1373 1369 1365 1362 1360 1359 1359 1361 1363 1366 1371 1375 1379 1382 1385 1388 1390 1393 1396 1399 1402 1404 1406 1409 1412 1414 1418 1422 1427 1432 1438 1444 1449 1454 1459
1414 1408 1402 1396 1391 1385 1380 1374 1369 1365 1362 1359 1357 1356 1356 1357 1359 1362 1366 1370 1374 1377 1381 1384 1386 1389 1392 1394 1397 1399 1401 1403 1406 1409 1412 1416 1421 1427 1433 1439 1445 1449 1455
1410 1404 1398 1393 1388 1382 1377 1372 1367 1363 1360 1357 1355 1354 1354 1355 1357 1359 1363 1366 1369 1373 1376 1379 1382 1384 1387 1390 1392 1393 1396 1399 1401 1404 1407 1411 1417 1422 1427 1433 1439 1444 1450
1406 1401 1395 1390 1385 1380 1375 1370 1366 1362 1358 1355 1353 1352 1352 1353 1355 1357 1359 1363 1366 1369 1372 1375 1378 1380 1383 1385 1387 1389 1391 1393 1395 1398 1402 1406 1410 1416 1422 1428 1434 1440 1446
1403 1398 1393 1388 1383 1378 1374 1369 1365 1361 1357 1354 1352 1351 1351 1351 1352 1354 1357 1360 1362 1365 1369 1371 1373 1375 1378 1380 1382 1383 1385 1388 1390 1393 1396 1400 1405 1410 1417 1423 1430 1436 1443
1401 1396 1391 1387 1382 1377 1373 1368 1364 1361 1357 1354 1352 1351 1351 1351 1352 1353 1355 1358 1360 1363 1366 1367 1369 1371 1373 1375 1377 1378 1380 1382 1384 1387 1391 1395 1400 1405 1411 1418 1425 1433 1441
1399 1394 1390 1386 1381 1377 1373 1368 1364 1361 1358 1356 1354 1353 1352 1352 1352 1353 1355 1357 1359 1360 1362 1364 1366 1367 1369 1371 1372 1374 1375 1377 1379 1382 1386 1391 1396 1401 1407 1414 1422 1430 1438
1397 1393 1389 1385 1381 1377 1373 1369 1365 1362 1360 1357 1355 1354 1353 1353 1353 1354 1355 1356 1358 1359 1360 1361 1363 1364 1365 1366 1368 1369 1371 1372 1375 1378 1383 1387 1392 1398 1404 1412 1420 1428 1436
1396 1392 1388 1384 1381 1377 1374 1370 1367 1364 1361 1359 1357 1356 1355 1354 1354 1354 1354 1355 1356 1357 1358 1359 1360 1361 1362 1363 1364 1365 1366 1368 1371 1375 1379 1384 1389 1395 1402 1410 1418 1426 1434
1395 1391 1387 1384 1381 1378 1374 1371 1368 1365 1362 1360 1359 1358 1356 1356 1355 1355 1354 1354 1355 1355 1356 1356 1357 1357 1358 1359 1360 1361 1362 1365 1368 1372 1376 1382 1387 1394 1402 1409 1417 1425 1433
1394 1390 1387 1384 1381 1378 1375 1372 1370 1367 1364 1362 1360 1359 1357 1356 1356 1355 1354 1354 1353 1353 1353 1354 1354 1355 1355 1356 1356 1358 1360 1363 1366 1370 1376 1381 1387 1394 1402 1410 1418 1425 1432
1393 1390 1386 1384 1381 1378 1376 1373 1371 1368 1366 1364 1362 1360 1359 1357 1356 1355 1354 1353 1353 1352 1352 1352 1352 1353 1354 1354 1355 1357 1359 1362 1367 1372 1377 1383 1389 1396 1403 1411 1418 1425 1432
1393 1389 1386 1383 1381 1379 1377 1374 1372 1370 1368 1366 1364 1362 1360 1359 1357 1356 1355 1354 1353 1352 1352 1352 1352 1353 1354 1356 1357 1359 1362 1366 1370 1376 1381 1386 1393 1399 1406 1413 1420 1426 1432
1392 1389 1386 1383 1381 1379 1377 1376 1374 1372 1371 1369 1367 1365 1363 1362 1360 1359 1357 1356 1355 1354 1354 1354 1355 1356 1357 1360 1362 1364 1367 1371 1376 1382 1387 1392 1398 1404 1410 1416 1421 1427 1432
1392 1389 1386 1384 1381 1379 1378 1377 1375 1374 1373 1371 1370 1368 1366 1365 1363 1362 1361 1359 1358 1357 1358 1358 1359 1360 1362 1365 1367 1370 1373 1377 1382 1387 1393 1398 1403 1408 1413 1418 1423 1428 1433